Regional Weather Roundup
Issued by NWS

Home | Current Version | Previous Version | Graphics & Text | Print | Product List | Glossary On
Versions: 1 2 3 4 5 6 7 8 9 10 11 12 13 14 15 16 17 18 19 20 21 22 23 24 25 26 27 28 29 30 31 32 33 34 35 36 37 38 39 40 41 42 43 44 45 46 47 48 49 50
000
ASUS43 KOAX 261902
RWRNE

WEATHER ROUNDUP FOR NEBRASKA
NATIONAL WEATHER SERVICE OMAHA NE
200 PM CDT THU MAR 26 2015

NOTES: SATELLITE DATA IS BEING USED TO AUGMENT CLOUD COVER ABOVE
       12000 FEET.
       "FAIR" INDICATES FEW OR NO CLOUDS BELOW 12,000 FEET WITH NO
       SIGNIFICANT WEATHER AND/OR OBSTRUCTIONS TO VISIBILITY.

  * THESE STATIONS DO NOT REPORT WEATHER SUCH AS RAIN...SNOW OR FOG.

NEZ001>004-019>022-054>056-262000-
NEBRASKA PANHANDLE

CITY           SKY/WX    TMP DP  RH WIND       PRES   REMARKS
SCOTTSBLUFF    CLOUDY    53  30  41 NW28G38   30.14F
ALLIANCE       CLOUDY    50  30  46 NW21G33   30.11F
CHADRON        CLOUDY    51  30  44 NW23G29   30.11F
KIMBALL        PTSUNNY   53  22  30 NW25G36   30.13F
SIDNEY         PTSUNNY   55  25  31 NW25G41   30.13F
$$

NEZ057>060-069>072-079>082-262000-
SOUTHWEST NEBRASKA

CITY           SKY/WX    TMP DP  RH WIND       PRES   REMARKS
NORTH PLATTE   CLOUDY    57  26  30 NW26G33   30.04F
IMPERIAL         N/A     57  26  30 NW26G37   30.09F
LEXINGTON      PTSUNNY   55  29  37 SW15G21   30.06F
MCCOOK         PTSUNNY   62  25  24 NW17G25   30.06F
OGALLALA       CLOUDY    58  28  31 NW30G36   30.08S
$$

NEZ005>010-023>029-035>040-094-262000-
NORTH CENTRAL NEBRASKA

CITY           SKY/WX    TMP DP  RH WIND       PRES   REMARKS
VALENTINE      PTSUNNY   51  27  39 N8        30.04S
AINSWORTH      PTSUNNY   47  27  44 CALM      30.04F
BROKEN BOW     MOSUNNY   52  28  39 SW8       30.04F
ORD            CLOUDY    45  24  43 S9        30.07F
$$

NEZ041-046>049-061>064-073>077-083>087-262000-
SOUTH CENTRAL NEBRASKA

CITY           SKY/WX    TMP DP  RH WIND       PRES   REMARKS
GRAND ISLAND   CLOUDY    46  27  47 S10       30.11F
AURORA         CLOUDY    47  27  46 SW7       30.10F
HASTINGS       CLOUDY    47  27  45 S7        30.10F
HEBRON         PTSUNNY   48  26  42 NW6       30.15F
HOLDREGE       CLOUDY    50  28  43 S16G23    30.07F
KEARNEY *      CLOUDY    48  23  37 S20       30.08
YORK           CLOUDY    46  27  46 CALM      30.13F
$$

NEZ011>018-030>034-042>045-262000-
NORTHEAST NEBRASKA

CITY           SKY/WX    TMP DP  RH WIND       PRES   REMARKS
NORFOLK        CLOUDY    41  25  53 N12       30.13F
ALBION         CLOUDY    44  23  43 CALM      30.10F
BLAIR          SUNNY     46  23  40 W6        30.13F
COLUMBUS *     PTSUNNY   45  23  42 NW5       30.15F
FREMONT        MOSUNNY   48  22  35 W8        30.14F
TEKAMAH        MOSUNNY   49  22  34 NW16G28   30.15F
WAYNE          CLOUDY    42  23  46 NW7       30.15F
$$

NEZ050>053-065>068-078-088>093-262000-
SOUTHEAST NEBRASKA

CITY           SKY/WX    TMP DP  RH WIND       PRES   REMARKS
LINCOLN        MOSUNNY   49  23  36 NW7       30.15F
OMAHA EPPLEY   PTSUNNY   47  23  38 VRB5      30.14F
BEATRICE       MOSUNNY   47  27  46 NW6       30.15F
FALLS CITY     SUNNY     48  29  47 N10       30.16F
NEBRASKA CITY  SUNNY     46  22  39 NW12G17   30.15F
PLATTSMOUTH    SUNNY     45  20  35 W9        30.15F
$$

NEZ044-045-051>053-067-262000-
OMAHA AREA

CITY           SKY/WX    TMP DP  RH WIND       PRES   REMARKS
OMAHA EPPLEY   PTSUNNY   47  23  38 VRB5      30.14F
BLAIR          SUNNY     46  23  40 W6        30.13F
FREMONT        MOSUNNY   48  22  35 W8        30.14F
MILLARD        SUNNY     46  25  43 W3        30.15F
OFFUTT AFB     SUNNY     47  22  38 NW10      30.14F
PLATTSMOUTH    SUNNY     45  20  35 W9        30.15F
WAHOO          FAIR      48  21  34 W5        30.14F
$$



USA.gov is the U.S. government's official web portal to all federal, state and local government web resources and services.